Time,TemperatureF,DewpointF,PressureIn,WindDirection,WindDirectionDegrees,WindSpeedMPH,WindSpeedGustMPH,Humidity,HourlyPrecipIn,Conditions,Clouds,dailyrainin,SolarRadiationWatts/m^2,SoftwareType,DateUTC
2013-05-07 00:02:00,54.0,34.0,-100.00,WNW,302,14.0,26.0,46,0.00,,,0.00,0.000000,,2013-05-07 07:02:00,
2013-05-07 00:11:00,54.0,34.0,-100.00,WNW,302,14.0,26.0,46,0.00,,,0.00,0.000000,,2013-05-07 07:11:00,
2013-05-07 00:22:00,54.0,34.0,-100.00,WNW,302,14.0,26.0,46,0.00,,,0.00,0.000000,,2013-05-07 07:22:00,
2013-05-07 00:52:00,52.0,32.0,-100.00,ESE,110,0.0,19.0,47,0.00,,,0.00,0.000000,,2013-05-07 07:52:00,
2013-05-07 01:02:00,52.0,32.0,-100.00,ESE,110,0.0,19.0,47,0.00,,,0.00,0.000000,,2013-05-07 08:02:00,
2013-05-07 01:11:00,52.0,32.0,-100.00,ESE,110,0.0,19.0,47,0.00,,,0.00,0.000000,,2013-05-07 08:11:00,
2013-05-07 01:21:00,52.0,32.0,-100.00,ESE,110,0.0,19.0,47,0.00,,,0.00,0.000000,,2013-05-07 08:21:00,
2013-05-07 01:52:00,50.0,36.0,-100.00,SSW,211,0.0,6.0,58,0.00,,,0.00,0.000000,,2013-05-07 08:52:00,
2013-05-07 02:01:00,50.0,36.0,-100.00,SSW,211,0.0,6.0,58,0.00,,,0.00,0.000000,,2013-05-07 09:01:00,
2013-05-07 02:11:00,50.0,36.0,-100.00,SSW,211,0.0,6.0,58,0.00,,,0.00,0.000000,,2013-05-07 09:11:00,
2013-05-07 02:22:00,50.0,36.0,-100.00,SSW,211,0.0,6.0,58,0.00,,,0.00,0.000000,,2013-05-07 09:22:00,
2013-05-07 02:52:00,48.0,34.0,-100.00,South,180,0.0,6.0,59,0.00,,,0.00,0.000000,,2013-05-07 09:52:00,
2013-05-07 03:02:00,48.0,34.0,-100.00,South,180,0.0,6.0,59,0.00,,,0.00,0.000000,,2013-05-07 10:02:00,
2013-05-07 03:12:00,48.0,34.0,-100.00,South,180,0.0,6.0,59,0.00,,,0.00,0.000000,,2013-05-07 10:12:00,
2013-05-07 03:22:00,48.0,34.0,-100.00,South,180,0.0,6.0,59,0.00,,,0.00,0.000000,,2013-05-07 10:22:00,
2013-05-07 03:52:00,49.0,38.0,-100.00,WSW,249,6.0,13.0,66,0.00,,,0.00,0.000000,,2013-05-07 10:52:00,
2013-05-07 04:02:00,49.0,38.0,-100.00,WSW,249,6.0,13.0,66,0.00,,,0.00,0.000000,,2013-05-07 11:02:00,
2013-05-07 04:11:00,49.0,38.0,-100.00,WSW,249,6.0,13.0,66,0.00,,,0.00,0.000000,,2013-05-07 11:11:00,
2013-05-07 04:21:00,49.0,38.0,-100.00,WSW,249,6.0,13.0,66,0.00,,,0.00,0.000000,,2013-05-07 11:21:00,
2013-05-07 04:52:00,50.0,33.0,-100.00,WSW,247,2.0,29.0,52,0.00,,,0.00,0.000000,,2013-05-07 11:52:00,
2013-05-07 05:02:00,50.0,33.0,-100.00,WSW,247,2.0,29.0,52,0.00,,,0.00,0.000000,,2013-05-07 12:02:00,
2013-05-07 05:11:00,50.0,33.0,-100.00,WSW,247,2.0,29.0,52,0.00,,,0.00,0.000000,,2013-05-07 12:11:00,
2013-05-07 05:21:00,50.0,33.0,-100.00,WSW,247,2.0,29.0,52,0.00,,,0.00,0.000000,,2013-05-07 12:21:00,
2013-05-07 05:52:00,46.0,36.0,-100.00,WSW,251,6.0,11.0,67,0.00,,,0.00,0.000000,,2013-05-07 12:52:00,
2013-05-07 06:02:00,46.0,36.0,-100.00,WSW,251,6.0,11.0,67,0.00,,,0.00,0.000000,,2013-05-07 13:02:00,
2013-05-07 06:11:00,46.0,36.0,-100.00,WSW,251,6.0,11.0,67,0.00,,,0.00,0.000000,,2013-05-07 13:11:00,
2013-05-07 06:21:00,46.0,36.0,-100.00,WSW,251,6.0,11.0,67,0.00,,,0.00,0.000000,,2013-05-07 13:21:00,
2013-05-07 06:52:00,49.0,38.0,-100.00,West,259,4.0,12.0,66,0.00,,,0.00,16.000000,,2013-05-07 13:52:00,
2013-05-07 07:02:00,49.0,38.0,-100.00,West,259,4.0,12.0,66,0.00,,,0.00,16.000000,,2013-05-07 14:02:00,
2013-05-07 07:11:00,49.0,38.0,-100.00,West,259,4.0,12.0,66,0.00,,,0.00,16.000000,,2013-05-07 14:11:00,
2013-05-07 07:21:00,49.0,38.0,-100.00,West,259,4.0,12.0,66,0.00,,,0.00,16.000000,,2013-05-07 14:21:00,
2013-05-07 07:52:00,55.0,38.0,-100.00,ENE,78,0.0,8.0,53,0.00,,,0.00,210.000000,,2013-05-07 14:52:00,
2013-05-07 08:01:00,55.0,38.0,-100.00,ENE,78,0.0,8.0,53,0.00,,,0.00,210.000000,,2013-05-07 15:01:00,
2013-05-07 08:12:00,55.0,38.0,-100.00,ENE,78,0.0,8.0,53,0.00,,,0.00,210.000000,,2013-05-07 15:12:00,
2013-05-07 08:21:00,55.0,38.0,-100.00,ENE,78,0.0,8.0,53,0.00,,,0.00,210.000000,,2013-05-07 15:21:00,
2013-05-07 08:53:00,55.0,36.0,-100.00,East,80,4.0,9.0,49,0.00,,,0.00,487.000000,,2013-05-07 15:53:00,
2013-05-07 09:03:00,55.0,36.0,-100.00,East,80,4.0,9.0,49,0.00,,,0.00,487.000000,,2013-05-07 16:03:00,
2013-05-07 09:12:00,55.0,36.0,-100.00,East,80,4.0,9.0,49,0.00,,,0.00,487.000000,,2013-05-07 16:12:00,
2013-05-07 09:22:00,55.0,36.0,-100.00,East,80,4.0,9.0,49,0.00,,,0.00,487.000000,,2013-05-07 16:22:00,
2013-05-07 11:52:00,56.0,39.0,-100.00,NW,305,9.0,13.0,53,-99.99,,,0.00,657.000000,,2013-05-07 18:52:00,
2013-05-07 12:02:00,56.0,39.0,-100.00,NW,305,9.0,13.0,53,-99.99,,,0.00,657.000000,,2013-05-07 19:02:00,
2013-05-07 12:11:00,56.0,39.0,-100.00,NW,305,9.0,13.0,53,-99.99,,,0.00,657.000000,,2013-05-07 19:11:00,
2013-05-07 12:21:00,56.0,39.0,-100.00,NW,305,9.0,13.0,53,-99.99,,,0.00,657.000000,,2013-05-07 19:21:00,
2013-05-07 12:52:00,65.0,36.0,-100.00,SE,141,0.0,17.0,34,0.00,,,0.00,744.000000,,2013-05-07 19:52:00,
2013-05-07 13:02:00,65.0,36.0,-100.00,SE,141,0.0,17.0,34,0.00,,,0.00,744.000000,,2013-05-07 20:02:00,
2013-05-07 13:11:00,65.0,36.0,-100.00,SE,141,0.0,17.0,34,0.00,,,0.00,744.000000,,2013-05-07 20:11:00,
2013-05-07 13:21:00,65.0,36.0,-100.00,SE,141,0.0,17.0,34,0.00,,,0.00,744.000000,,2013-05-07 20:21:00,
2013-05-07 13:52:00,63.0,34.0,-100.00,East,83,3.0,14.0,34,0.00,,,0.00,1013.000000,,2013-05-07 20:52:00,
2013-05-07 14:01:00,63.0,34.0,-100.00,East,83,3.0,14.0,34,0.00,,,0.00,1013.000000,,2013-05-07 21:01:00,
2013-05-07 14:11:00,63.0,34.0,-100.00,East,83,3.0,14.0,34,0.00,,,0.00,1013.000000,,2013-05-07 21:11:00,
2013-05-07 14:21:00,63.0,34.0,-100.00,East,83,3.0,14.0,34,0.00,,,0.00,1013.000000,,2013-05-07 21:21:00,
2013-05-07 14:53:00,66.0,39.0,-100.00,SE,144,2.0,12.0,37,0.00,,,0.00,660.000000,,2013-05-07 21:53:00,
2013-05-07 15:02:00,66.0,39.0,-100.00,SE,144,2.0,12.0,37,0.00,,,0.00,660.000000,,2013-05-07 22:02:00,
2013-05-07 15:13:00,66.0,39.0,-100.00,SE,144,2.0,12.0,37,0.00,,,0.00,660.000000,,2013-05-07 22:13:00,
2013-05-07 15:22:00,66.0,39.0,-100.00,SE,144,2.0,12.0,37,0.00,,,0.00,660.000000,,2013-05-07 22:22:00,
2013-05-07 15:52:00,65.0,36.0,-100.00,West,281,11.0,19.0,34,0.00,,,0.00,1208.000000,,2013-05-07 22:52:00,
2013-05-07 16:02:00,65.0,36.0,-100.00,West,281,11.0,19.0,34,0.00,,,0.00,1208.000000,,2013-05-07 23:02:00,
2013-05-07 16:12:00,65.0,36.0,-100.00,West,281,11.0,19.0,34,0.00,,,0.00,1208.000000,,2013-05-07 23:12:00,
2013-05-07 16:21:00,65.0,36.0,-100.00,West,281,11.0,19.0,34,0.00,,,0.00,1208.000000,,2013-05-07 23:21:00,
2013-05-07 16:52:00,60.0,35.0,-100.00,West,278,12.0,24.0,39,0.00,,,0.00,954.000000,,2013-05-07 23:52:00,
2013-05-07 17:01:00,60.0,35.0,-100.00,West,278,12.0,24.0,39,0.00,,,0.00,954.000000,,2013-05-08 00:01:00,
2013-05-07 17:11:00,60.0,35.0,-100.00,West,278,12.0,24.0,39,0.00,,,0.00,954.000000,,2013-05-08 00:11:00,
2013-05-07 17:21:00,60.0,35.0,-100.00,West,278,12.0,24.0,39,0.00,,,0.00,954.000000,,2013-05-08 00:21:00,
2013-05-07 17:52:00,60.0,36.0,-100.00,West,278,13.0,28.0,40,0.00,,,0.00,697.000000,,2013-05-08 00:52:00,
2013-05-07 18:02:00,60.0,36.0,-100.00,West,278,13.0,28.0,40,0.00,,,0.00,697.000000,,2013-05-08 01:02:00,
2013-05-07 18:11:00,60.0,36.0,-100.00,West,278,13.0,28.0,40,0.00,,,0.00,697.000000,,2013-05-08 01:11:00,
2013-05-07 18:21:00,60.0,36.0,-100.00,West,278,13.0,28.0,40,0.00,,,0.00,697.000000,,2013-05-08 01:21:00,
2013-05-07 18:52:00,59.0,35.0,-100.00,West,281,13.0,24.0,41,0.00,,,0.00,395.000000,,2013-05-08 01:52:00,
2013-05-07 19:01:00,59.0,35.0,-100.00,West,281,13.0,24.0,41,0.00,,,0.00,395.000000,,2013-05-08 02:01:00,
2013-05-07 19:12:00,59.0,35.0,-100.00,West,281,13.0,24.0,41,0.00,,,0.00,395.000000,,2013-05-08 02:12:00,
2013-05-07 19:21:00,59.0,35.0,-100.00,West,281,13.0,24.0,41,0.00,,,0.00,395.000000,,2013-05-08 02:21:00,
2013-05-07 19:52:00,55.0,34.0,-100.00,West,272,16.0,29.0,45,0.00,,,0.00,39.000000,,2013-05-08 02:52:00,
2013-05-07 20:01:00,55.0,34.0,-100.00,West,272,16.0,29.0,45,0.00,,,0.00,39.000000,,2013-05-08 03:01:00,
2013-05-07 20:11:00,55.0,34.0,-100.00,West,272,16.0,29.0,45,0.00,,,0.00,39.000000,,2013-05-08 03:11:00,
2013-05-07 20:21:00,55.0,34.0,-100.00,West,272,16.0,29.0,45,0.00,,,0.00,39.000000,,2013-05-08 03:21:00,
2013-05-07 20:52:00,57.0,34.0,-100.00,West,277,10.0,32.0,41,0.00,,,0.00,3.000000,,2013-05-08 03:52:00,
2013-05-07 21:02:00,57.0,34.0,-100.00,West,277,10.0,32.0,41,0.00,,,0.00,3.000000,,2013-05-08 04:02:00,
2013-05-07 21:12:00,57.0,34.0,-100.00,West,277,10.0,32.0,41,0.00,,,0.00,3.000000,,2013-05-08 04:12:00,
2013-05-07 21:22:00,57.0,34.0,-100.00,West,277,10.0,32.0,41,0.00,,,0.00,3.000000,,2013-05-08 04:22:00,
2013-05-07 21:53:00,58.0,32.0,-100.00,West,281,12.0,22.0,37,0.00,,,0.00,0.000000,,2013-05-08 04:53:00,
2013-05-07 22:02:00,58.0,32.0,-100.00,West,281,12.0,22.0,37,0.00,,,0.00,0.000000,,2013-05-08 05:02:00,
2013-05-07 22:12:00,58.0,32.0,-100.00,West,281,12.0,22.0,37,0.00,,,0.00,0.000000,,2013-05-08 05:12:00,
2013-05-07 22:22:00,58.0,32.0,-100.00,West,281,12.0,22.0,37,0.00,,,0.00,0.000000,,2013-05-08 05:22:00,
2013-05-07 22:52:00,58.0,32.0,-100.00,West,281,6.0,19.0,37,0.00,,,0.00,0.000000,,2013-05-08 05:52:00,
2013-05-07 23:01:00,58.0,32.0,-100.00,West,281,6.0,19.0,37,0.00,,,0.00,0.000000,,2013-05-08 06:01:00,
2013-05-07 23:12:00,58.0,32.0,-100.00,West,281,6.0,19.0,37,0.00,,,0.00,0.000000,,2013-05-08 06:12:00,
2013-05-07 23:21:00,58.0,32.0,-100.00,West,281,6.0,19.0,37,0.00,,,0.00,0.000000,,2013-05-08 06:21:00,
2013-05-07 23:52:00,57.0,31.0,-100.00,SSE,153,0.0,9.0,37,0.00,,,0.00,0.000000,,2013-05-08 06:52:00,